Weather History for Lancaster, CA

Change the Weather History Date:

Tuesday, May 28, 2013

  Actual Average Record
Temperature  
Mean Temperature 66 °F 71 °F  
Max Temperature 75 °F 86 °F 106 °F (2003)
Min Temperature 57 °F 57 °F 42 °F (1953)
Degree Days  
Heating Degree Days 0    
Month to date heating degree days 32  
Since 1 July heating degree days 2717  
Cooling Degree Days 1    
Month to date cooling degree days 133  
Year to date cooling degree days 223  
Growing Degree Days 16 (Base 50)    
Moisture  
Dew Point 43 °F    
Average Humidity 49    
Maximum Humidity 67    
Minimum Humidity 31    
Precipitation  
Precipitation 0.00 in 0.00 in 0.25 in (1971)
Month to date precipitation 0.15 0.08  
Year to date precipitation 1.10 4.85  
Since 1 July precipitation 1.26 7.32  
Snow  
Snow 0.00 in - 0.00 in ()
Month to date snowfall 0.0  
Since 1 July snowfall 0.0  
Snow Depth 0.00 in    
Sea Level Pressure  
Sea Level Pressure 29.81 in    
Wind  
Wind Speed 25 mph (West)    
Max Wind Speed 39 mph    
Max Gust Speed 49 mph    
Visibility 6 miles    
Events      
T = Trace of Precipitation, MM = Missing Value Source: NWS Daily Summary

Daily Weather History Graph

Daily Weather History Graph

Search for Another Location

Airport:

Trip Planner

Search our weather history database for the weather conditions in past years. The results will help you decide how hot, cold, wet, or windy it might be!

Date:

Astronomy

May. 28, 2013 Rise Set
Actual Time 5:42 AM PDT 7:58 PM PDT
Civil Twilight 5:13 AM PDT 8:27 PM PDT
Nautical Twilight 4:37 AM PDT 9:02 PM PDT
Astronomical Twilight 3:59 AM PDT 9:41 PM PDT
Moon 11:31 PM PDT 9:32 AM PDT
Length of Visible Light 15h 14m
Length of Day
14h 16m
Waning Gibbous, 82% of the Moon is Illuminated
May 28
Waning Gibbous
May 31
Last Quarter
Jun 8
New
Jun 16
First Quarter
Jun 23
Full

Hourly Weather History & Observations

Time (PDT) Temp. Dew Point Humidity Pressure Visibility Wind Dir Wind Speed Gust Speed Precip Events Conditions
12:56 AM 61.0 °F 42.1 °F 50% 29.85 in 10.0 mi West 26.5 mph 36.8 mph N/A   Clear
1:56 AM 59.0 °F 45.0 °F 60% 29.86 in 10.0 mi West 28.8 mph 36.8 mph N/A   Clear
2:56 AM 57.9 °F 44.1 °F 60% 29.83 in 10.0 mi West 19.6 mph 28.8 mph N/A   Clear
3:56 AM 57.9 °F 45.0 °F 62% 29.83 in 10.0 mi West 26.5 mph 35.7 mph N/A   Clear
4:56 AM 57.9 °F 45.0 °F 62% 29.83 in 10.0 mi West 34.5 mph 41.4 mph N/A   Clear
5:56 AM 59.0 °F 45.0 °F 60% 29.82 in 10.0 mi WNW 24.2 mph 36.8 mph N/A   Clear
6:56 AM 59.0 °F 45.0 °F 60% 29.84 in 4.0 mi WNW 17.3 mph 26.5 mph N/A   Haze
7:03 AM 59.0 °F 44.6 °F 59% 29.87 in 2.0 mi West 18.4 mph 26.5 mph N/A   Haze
7:15 AM 59.0 °F 44.6 °F 59% 29.89 in 5.0 mi West 16.1 mph 25.3 mph N/A   Haze
7:26 AM 57.2 °F 46.4 °F 67% 29.88 in 10.0 mi West 13.8 mph - N/A   Scattered Clouds
7:56 AM 57.9 °F 46.0 °F 65% 29.85 in 10.0 mi West 24.2 mph 32.2 mph N/A   Clear
8:56 AM 61.0 °F 45.0 °F 56% 29.84 in 10.0 mi West 26.5 mph 34.5 mph N/A   Clear
9:56 AM 66.9 °F 46.0 °F 47% 29.84 in 10.0 mi West 19.6 mph 27.6 mph N/A   Clear
10:56 AM 71.1 °F 46.0 °F 41% 29.84 in 10.0 mi West 20.7 mph 28.8 mph N/A   Clear
11:56 AM 73.0 °F 46.0 °F 38% 29.83 in 10.0 mi West 29.9 mph 39.1 mph N/A   Clear
12:56 PM 75.0 °F 46.0 °F 36% 29.80 in 10.0 mi WNW 34.5 mph 42.6 mph N/A   Clear
1:56 PM 73.9 °F 46.0 °F 37% 29.80 in 10.0 mi West 32.2 mph 39.1 mph N/A   Clear
2:56 PM 73.0 °F 48.0 °F 41% 29.81 in 9.0 mi WSW 31.1 mph 41.4 mph N/A   Partly Cloudy
3:34 PM 73.4 °F 46.4 °F 38% 29.84 in 7.0 mi WSW 33.4 mph 41.4 mph N/A   Mostly Cloudy
3:56 PM 73.0 °F 46.0 °F 38% 29.81 in 4.0 mi WSW 31.1 mph 39.1 mph N/A   Haze
4:15 PM 71.6 °F 44.6 °F 38% 29.84 in 1.8 mi WSW 25.3 mph 39.1 mph N/A   Haze
4:44 PM 71.6 °F 44.6 °F 38% 29.83 in 0.8 mi WSW 26.5 mph 48.3 mph N/A   Haze
4:56 PM 71.1 °F 46.0 °F 41% 29.78 in 1.8 mi West 29.9 mph 48.3 mph N/A   Haze
5:24 PM 71.6 °F 42.8 °F 35% 29.79 in 2.0 mi West 29.9 mph 46.0 mph N/A   Haze
5:34 PM 71.6 °F 42.8 °F 35% 29.78 in 1.5 mi West 28.8 mph 44.9 mph N/A   Haze
5:53 PM 71.6 °F 41.0 °F 33% 29.76 in 2.5 mi West 31.1 mph 42.6 mph N/A   Haze
5:56 PM 72.0 °F 41.0 °F 33% 29.73 in 2.0 mi West 28.8 mph 41.4 mph N/A   Haze
6:08 PM 71.6 °F 39.2 °F 31% 29.75 in 1.2 mi WNW 34.5 mph 43.7 mph N/A   Haze
6:48 PM 71.6 °F 39.2 °F 31% 29.79 in 1.0 mi North 12.7 mph 24.2 mph N/A   Haze
6:56 PM 72.0 °F 39.0 °F 30% 29.75 in 0.5 mi ESE 15.0 mph 23.0 mph N/A   Haze
7:06 PM 71.6 °F 39.2 °F 31% 29.80 in 0.5 mi SSE 8.1 mph - N/A   Haze
7:24 PM 71.6 °F 37.4 °F 29% 29.80 in 1.0 mi Variable 6.9 mph - N/A   Haze
7:48 PM 71.6 °F 37.4 °F 29% 29.79 in 1.2 mi SW 12.7 mph 21.9 mph N/A   Haze
7:56 PM 70.0 °F 37.9 °F 31% 29.77 in 1.8 mi West 8.1 mph 17.3 mph N/A   Haze
8:16 PM 69.8 °F 39.2 °F 33% 29.81 in 3.0 mi South 11.5 mph 18.4 mph N/A   Haze
8:31 PM 69.8 °F 39.2 °F 33% 29.81 in 4.0 mi South 16.1 mph 28.8 mph N/A   Haze
8:56 PM 69.1 °F 41.0 °F 36% 29.80 in 5.0 mi West 16.1 mph 23.0 mph N/A   Haze
9:09 PM 68.0 °F 42.8 °F 40% 29.82 in 6.0 mi WNW 13.8 mph 25.3 mph N/A   Haze
9:56 PM 66.9 °F 42.1 °F 40% 29.81 in 6.0 mi West 15.0 mph 27.6 mph N/A   Haze
10:56 PM 66.9 °F 41.0 °F 39% 29.78 in 9.0 mi West 28.8 mph 40.3 mph N/A   Mostly Cloudy
11:56 PM 66.0 °F 44.1 °F 45% 29.81 in 10.0 mi WSW 25.3 mph 31.1 mph N/A   Mostly Cloudy